Time,TemperatureF,DewpointF,PressureIn,WindDirection,WindDirectionDegrees,WindSpeedMPH,WindSpeedGustMPH,Humidity,HourlyPrecipIn,Conditions,Clouds,dailyrainin,SolarRadiationWatts/m^2,SoftwareType,DateUTC
2013-03-16 00:01:00,32.0,26.0,-100.00,ENE,69,2.0,5.0,79,0.00,,,0.00,0.000000,,2013-03-16 04:01:00,
2013-03-16 00:33:00,32.0,26.0,-100.00,ENE,69,2.0,5.0,79,0.00,,,0.00,0.000000,,2013-03-16 04:33:00,
2013-03-16 00:43:00,32.0,26.0,-100.00,ENE,69,2.0,5.0,79,0.00,,,0.00,0.000000,,2013-03-16 04:43:00,
2013-03-16 00:53:00,32.0,26.0,-100.00,ENE,69,2.0,5.0,79,0.00,,,0.00,0.000000,,2013-03-16 04:53:00,
2013-03-16 01:01:00,30.0,25.0,-100.00,East,92,6.0,12.0,80,0.00,,,0.00,0.000000,,2013-03-16 05:01:00,
2013-03-16 01:32:00,30.0,25.0,-100.00,East,92,6.0,12.0,80,0.00,,,0.00,0.000000,,2013-03-16 05:32:00,
2013-03-16 01:42:00,30.0,25.0,-100.00,East,92,6.0,12.0,80,0.00,,,0.00,0.000000,,2013-03-16 05:42:00,
2013-03-16 01:53:00,30.0,25.0,-100.00,East,92,6.0,12.0,80,0.00,,,0.00,0.000000,,2013-03-16 05:53:00,
2013-03-16 02:01:00,28.0,23.0,-100.00,East,81,4.0,10.0,81,0.00,,,0.00,0.000000,,2013-03-16 06:01:00,
2013-03-16 02:22:00,28.0,23.0,-100.00,East,81,4.0,10.0,81,0.00,,,0.00,0.000000,,2013-03-16 06:22:00,
2013-03-16 02:32:00,28.0,23.0,-100.00,East,81,4.0,10.0,81,0.00,,,0.00,0.000000,,2013-03-16 06:32:00,
2013-03-16 02:42:00,28.0,23.0,-100.00,East,81,4.0,10.0,81,0.00,,,0.00,0.000000,,2013-03-16 06:42:00,
2013-03-16 02:52:00,28.0,23.0,-100.00,East,81,4.0,10.0,81,0.00,,,0.00,0.000000,,2013-03-16 06:52:00,
2013-03-16 03:01:00,27.0,22.0,-100.00,East,90,4.0,14.0,81,0.00,,,0.00,0.000000,,2013-03-16 07:01:00,
2013-03-16 03:32:00,27.0,22.0,-100.00,East,90,4.0,14.0,81,0.00,,,0.00,0.000000,,2013-03-16 07:32:00,
2013-03-16 03:42:00,27.0,22.0,-100.00,East,90,4.0,14.0,81,0.00,,,0.00,0.000000,,2013-03-16 07:42:00,
2013-03-16 03:53:00,27.0,22.0,-100.00,East,90,4.0,14.0,81,0.00,,,0.00,0.000000,,2013-03-16 07:53:00,
2013-03-16 04:01:00,26.0,21.0,-100.00,ENE,73,4.0,15.0,82,0.00,,,0.00,0.000000,,2013-03-16 08:01:00,
2013-03-16 04:33:00,26.0,21.0,-100.00,ENE,73,4.0,15.0,82,0.00,,,0.00,0.000000,,2013-03-16 08:33:00,
2013-03-16 04:42:00,26.0,21.0,-100.00,ENE,73,4.0,15.0,82,0.00,,,0.00,0.000000,,2013-03-16 08:42:00,
2013-03-16 04:52:00,26.0,21.0,-100.00,ENE,73,4.0,15.0,82,0.00,,,0.00,0.000000,,2013-03-16 08:52:00,
2013-03-16 05:01:00,25.0,20.0,-100.00,ENE,75,4.0,13.0,82,0.00,,,0.00,0.000000,,2013-03-16 09:01:00,
2013-03-16 05:33:00,25.0,20.0,-100.00,ENE,75,4.0,13.0,82,0.00,,,0.00,0.000000,,2013-03-16 09:33:00,
2013-03-16 05:43:00,25.0,20.0,-100.00,ENE,75,4.0,13.0,82,0.00,,,0.00,0.000000,,2013-03-16 09:43:00,
2013-03-16 05:53:00,25.0,20.0,-100.00,ENE,75,4.0,13.0,82,0.00,,,0.00,0.000000,,2013-03-16 09:53:00,
2013-03-16 06:01:00,25.0,21.0,-100.00,ENE,72,3.0,8.0,83,0.00,,,0.00,0.000000,,2013-03-16 10:01:00,
2013-03-16 06:32:00,25.0,21.0,-100.00,ENE,72,3.0,8.0,83,0.00,,,0.00,0.000000,,2013-03-16 10:32:00,
2013-03-16 06:42:00,25.0,21.0,-100.00,ENE,72,3.0,8.0,83,0.00,,,0.00,0.000000,,2013-03-16 10:42:00,
2013-03-16 06:53:00,25.0,21.0,-100.00,ENE,72,3.0,8.0,83,0.00,,,0.00,0.000000,,2013-03-16 10:53:00,
2013-03-16 07:01:00,24.0,20.0,-100.00,NE,51,5.0,12.0,83,0.00,,,0.00,0.000000,,2013-03-16 11:01:00,
2013-03-16 07:33:00,24.0,20.0,-100.00,NE,51,5.0,12.0,83,0.00,,,0.00,0.000000,,2013-03-16 11:33:00,
2013-03-16 07:43:00,24.0,20.0,-100.00,NE,51,5.0,12.0,83,0.00,,,0.00,0.000000,,2013-03-16 11:43:00,
2013-03-16 07:53:00,24.0,20.0,-100.00,NE,51,5.0,12.0,83,0.00,,,0.00,0.000000,,2013-03-16 11:53:00,
2013-03-16 08:01:00,24.0,20.0,-100.00,NE,47,4.0,12.0,83,0.00,,,0.00,0.000000,,2013-03-16 12:01:00,
2013-03-16 08:22:00,24.0,20.0,-100.00,NE,47,4.0,12.0,83,0.00,,,0.00,0.000000,,2013-03-16 12:22:00,
2013-03-16 08:32:00,24.0,20.0,-100.00,NE,47,4.0,12.0,83,0.00,,,0.00,0.000000,,2013-03-16 12:32:00,
2013-03-16 08:43:00,24.0,20.0,-100.00,NE,47,4.0,12.0,83,0.00,,,0.00,0.000000,,2013-03-16 12:43:00,
2013-03-16 08:53:00,24.0,20.0,-100.00,NE,47,4.0,12.0,83,0.00,,,0.00,0.000000,,2013-03-16 12:53:00,
2013-03-16 09:01:00,24.0,20.0,-100.00,NNE,27,4.0,11.0,84,0.00,,,0.00,13.000000,,2013-03-16 13:01:00,
2013-03-16 09:32:00,24.0,20.0,-100.00,NNE,27,4.0,11.0,84,0.00,,,0.00,13.000000,,2013-03-16 13:32:00,
2013-03-16 09:43:00,24.0,20.0,-100.00,NNE,27,4.0,11.0,84,0.00,,,0.00,13.000000,,2013-03-16 13:43:00,
2013-03-16 09:53:00,24.0,20.0,-100.00,NNE,27,4.0,11.0,84,0.00,,,0.00,13.000000,,2013-03-16 13:53:00,
2013-03-16 10:01:00,24.0,20.0,-100.00,NE,35,5.0,12.0,84,0.00,,,0.00,26.000000,,2013-03-16 14:01:00,
2013-03-16 10:32:00,24.0,20.0,-100.00,NE,35,5.0,12.0,84,0.00,,,0.00,26.000000,,2013-03-16 14:32:00,
2013-03-16 10:42:00,24.0,20.0,-100.00,NE,35,5.0,12.0,84,0.00,,,0.00,26.000000,,2013-03-16 14:42:00,
2013-03-16 10:53:00,24.0,20.0,-100.00,NE,35,5.0,12.0,84,0.00,,,0.00,26.000000,,2013-03-16 14:53:00,
2013-03-16 11:01:00,25.0,21.0,-100.00,NNE,20,4.0,8.0,84,0.00,,,0.00,80.000000,,2013-03-16 15:01:00,
2013-03-16 11:33:00,25.0,21.0,-100.00,NNE,20,4.0,8.0,84,0.00,,,0.00,80.000000,,2013-03-16 15:33:00,
2013-03-16 11:44:00,25.0,21.0,-100.00,NNE,20,4.0,8.0,84,0.00,,,0.00,80.000000,,2013-03-16 15:44:00,
2013-03-16 11:53:00,25.0,21.0,-100.00,NNE,20,4.0,8.0,84,0.00,,,0.00,80.000000,,2013-03-16 15:53:00,
2013-03-16 12:01:00,27.0,23.0,-100.00,NNE,27,5.0,12.0,84,0.00,,,0.00,130.000000,,2013-03-16 16:01:00,
2013-03-16 12:23:00,27.0,23.0,-100.00,NNE,27,5.0,12.0,84,0.00,,,0.00,130.000000,,2013-03-16 16:23:00,
2013-03-16 12:33:00,27.0,23.0,-100.00,NNE,27,5.0,12.0,84,0.00,,,0.00,130.000000,,2013-03-16 16:33:00,
2013-03-16 12:43:00,27.0,23.0,-100.00,NNE,27,5.0,12.0,84,0.00,,,0.00,130.000000,,2013-03-16 16:43:00,
2013-03-16 12:53:00,27.0,23.0,-100.00,NNE,27,5.0,12.0,84,0.00,,,0.00,130.000000,,2013-03-16 16:53:00,
2013-03-16 13:01:00,27.0,23.0,-100.00,NNE,33,5.0,12.0,84,0.00,,,0.00,146.000000,,2013-03-16 17:01:00,
2013-03-16 13:33:00,27.0,23.0,-100.00,NNE,33,5.0,12.0,84,0.00,,,0.00,146.000000,,2013-03-16 17:33:00,
2013-03-16 13:43:00,27.0,23.0,-100.00,NNE,33,5.0,12.0,84,0.00,,,0.00,146.000000,,2013-03-16 17:43:00,
2013-03-16 13:53:00,27.0,23.0,-100.00,NNE,33,5.0,12.0,84,0.00,,,0.00,146.000000,,2013-03-16 17:53:00,
2013-03-16 14:01:00,28.0,24.0,-100.00,North,9,3.0,9.0,84,0.00,,,0.00,151.000000,,2013-03-16 18:01:00,
2013-03-16 14:33:00,28.0,24.0,-100.00,North,9,3.0,9.0,84,0.00,,,0.00,151.000000,,2013-03-16 18:33:00,
2013-03-16 14:43:00,28.0,24.0,-100.00,North,9,3.0,9.0,84,0.00,,,0.00,151.000000,,2013-03-16 18:43:00,
2013-03-16 14:53:00,28.0,24.0,-100.00,North,9,3.0,9.0,84,0.00,,,0.00,151.000000,,2013-03-16 18:53:00,
2013-03-16 15:01:00,29.0,25.0,-100.00,NNW,341,7.0,13.0,83,0.00,,,0.00,156.000000,,2013-03-16 19:01:00,
2013-03-16 15:23:00,29.0,25.0,-100.00,NNW,341,7.0,13.0,83,0.00,,,0.00,156.000000,,2013-03-16 19:23:00,
2013-03-16 15:33:00,29.0,25.0,-100.00,NNW,341,7.0,13.0,83,0.00,,,0.00,156.000000,,2013-03-16 19:33:00,
2013-03-16 15:42:00,29.0,25.0,-100.00,NNW,341,7.0,13.0,83,0.00,,,0.00,156.000000,,2013-03-16 19:42:00,
2013-03-16 15:53:00,29.0,25.0,-100.00,NNW,341,7.0,13.0,83,0.00,,,0.00,156.000000,,2013-03-16 19:53:00,
2013-03-16 16:01:00,30.0,25.0,-100.00,NNW,344,5.0,13.0,83,0.00,,,0.00,207.000000,,2013-03-16 20:01:00,
2013-03-16 16:33:00,30.0,25.0,-100.00,NNW,344,5.0,13.0,83,0.00,,,0.00,207.000000,,2013-03-16 20:33:00,
2013-03-16 16:42:00,30.0,25.0,-100.00,NNW,344,5.0,13.0,83,0.00,,,0.00,207.000000,,2013-03-16 20:42:00,
2013-03-16 16:53:00,30.0,25.0,-100.00,NNW,344,5.0,13.0,83,0.00,,,0.00,207.000000,,2013-03-16 20:53:00,
2013-03-16 17:01:00,29.0,25.0,-100.00,NNW,344,5.0,15.0,83,0.00,,,0.00,155.000000,,2013-03-16 21:01:00,
2013-03-16 17:23:00,29.0,25.0,-100.00,NNW,344,5.0,15.0,83,0.00,,,0.00,155.000000,,2013-03-16 21:23:00,
2013-03-16 17:33:00,29.0,25.0,-100.00,NNW,344,5.0,15.0,83,0.00,,,0.00,155.000000,,2013-03-16 21:33:00,
2013-03-16 17:43:00,29.0,25.0,-100.00,NNW,344,5.0,15.0,83,0.00,,,0.00,155.000000,,2013-03-16 21:43:00,
2013-03-16 17:53:00,29.0,25.0,-100.00,NNW,344,5.0,15.0,83,0.00,,,0.00,155.000000,,2013-03-16 21:53:00,
2013-03-16 18:01:00,28.0,23.0,-100.00,North,4,5.0,14.0,82,0.00,,,0.00,102.000000,,2013-03-16 22:01:00,
2013-03-16 18:33:00,28.0,23.0,-100.00,North,4,5.0,14.0,82,0.00,,,0.00,102.000000,,2013-03-16 22:33:00,
2013-03-16 18:42:00,28.0,23.0,-100.00,North,4,5.0,14.0,82,0.00,,,0.00,102.000000,,2013-03-16 22:42:00,
2013-03-16 18:53:00,28.0,23.0,-100.00,North,4,5.0,14.0,82,0.00,,,0.00,102.000000,,2013-03-16 22:53:00,
2013-03-16 19:01:00,28.0,23.0,-100.00,NNW,344,4.0,11.0,82,0.00,,,0.00,50.000000,,2013-03-16 23:01:00,
2013-03-16 19:33:00,28.0,23.0,-100.00,NNW,344,4.0,11.0,82,0.00,,,0.00,50.000000,,2013-03-16 23:33:00,
2013-03-16 19:42:00,28.0,23.0,-100.00,NNW,344,4.0,11.0,82,0.00,,,0.00,50.000000,,2013-03-16 23:42:00,
2013-03-16 19:53:00,28.0,23.0,-100.00,NNW,344,4.0,11.0,82,0.00,,,0.00,50.000000,,2013-03-16 23:53:00,
2013-03-16 20:01:00,26.0,21.0,-100.00,East,81,0.0,5.0,82,0.00,,,0.00,16.000000,,2013-03-17 00:01:00,
2013-03-16 20:33:00,26.0,21.0,-100.00,East,81,0.0,5.0,82,0.00,,,0.00,16.000000,,2013-03-17 00:33:00,
2013-03-16 20:43:00,26.0,21.0,-100.00,East,81,0.0,5.0,82,0.00,,,0.00,16.000000,,2013-03-17 00:43:00,
2013-03-16 20:53:00,26.0,21.0,-100.00,East,81,0.0,5.0,82,0.00,,,0.00,16.000000,,2013-03-17 00:53:00,
2013-03-16 21:01:00,23.0,18.0,-100.00,SSE,157,2.0,3.0,82,0.00,,,0.00,0.000000,,2013-03-17 01:01:00,
2013-03-16 21:33:00,23.0,18.0,-100.00,SSE,157,2.0,3.0,82,0.00,,,0.00,0.000000,,2013-03-17 01:33:00,
2013-03-16 21:43:00,23.0,18.0,-100.00,SSE,157,2.0,3.0,82,0.00,,,0.00,0.000000,,2013-03-17 01:43:00,
2013-03-16 21:53:00,23.0,18.0,-100.00,SSE,157,2.0,3.0,82,0.00,,,0.00,0.000000,,2013-03-17 01:53:00,
2013-03-16 22:01:00,25.0,20.0,-100.00,SSW,199,2.0,5.0,82,0.00,,,0.00,0.000000,,2013-03-17 02:01:00,
2013-03-16 22:23:00,25.0,20.0,-100.00,SSW,199,2.0,5.0,82,0.00,,,0.00,0.000000,,2013-03-17 02:23:00,
2013-03-16 22:33:00,25.0,20.0,-100.00,SSW,199,2.0,5.0,82,0.00,,,0.00,0.000000,,2013-03-17 02:33:00,
2013-03-16 22:43:00,25.0,20.0,-100.00,SSW,199,2.0,5.0,82,0.00,,,0.00,0.000000,,2013-03-17 02:43:00,
2013-03-16 22:53:00,25.0,20.0,-100.00,SSW,199,2.0,5.0,82,0.00,,,0.00,0.000000,,2013-03-17 02:53:00,
2013-03-16 23:01:00,25.0,20.0,-100.00,South,177,2.0,4.0,82,0.00,,,0.00,0.000000,,2013-03-17 03:01:00,
2013-03-16 23:34:00,25.0,20.0,-100.00,South,177,2.0,4.0,82,0.00,,,0.00,0.000000,,2013-03-17 03:34:00,
2013-03-16 23:43:00,25.0,20.0,-100.00,South,177,2.0,4.0,82,0.00,,,0.00,0.000000,,2013-03-17 03:43:00,
2013-03-16 23:53:00,25.0,20.0,-100.00,South,177,2.0,4.0,82,0.00,,,0.00,0.000000,,2013-03-17 03:53:00,